sat.trackr.live / text

‹ back to catalog

BOTSAT-1

NORAD 63216 · 2025-052G

PAYLOAD ACTIVE UNKNOWN

§ Identity

Operator
Country
BWA
Launch date
2025-03-15
Launch site
AFWTR
Launch vehicle
Mass (kg)
RCS (m²)

External: N2YO · Heavens-Above · Gunter

§ Orbital elements

Epoch: 2026-09-22T22:32:09.644928Z

Period
94.21 min
Inclination
97.3747°
Eccentricity
0.0003751
Mean motion
15.28563368 rev/d
Perigee alt
477.5 km
Apogee alt
482.7 km
Semi-major
6,858.2 km
B*
2.1635e-4
RAAN
158.8478°
Arg perigee
114.6681°
Mean anomaly
245.4950°
Rev number
8,488

§ Raw data

BOTSAT-11 63216U 25052G   26265.93900052  .00005938  00000+0  21635-3 0  99952 63216  97.3747 158.8478 0003751 114.6681 245.4950 15.28563368 84885

JSON: /api/v1/satellites/63216 · /tle

For live sub-satellite position, see the globe view (requires WebGL).

§ Visibility from observer

Set your observer location to see the next 7 days of passes ≥ 10°. The values pass through the URL so the page stays shareable.

No JS? Fill the form by hand. The geolocation button needs JavaScript.

§ Radio — SatNOGS DB

ModeDescriptionDownlinkUplink
GMSK Mode U - GMSK4k8 - Telemetry 401.360 MHz
FM Mode X - Transmitter 8.185 GHz

2 transmitters · refreshed weekly from db.satnogs.org